Location: Jackson
(42.2460°N, 84.4010°W)
Time: 19:31:41
(UTC-04:00)

Courier 1B Rocket - Pass Details

Date: 11 February 2026
Orbit: 920 x 1201 km, 28.2° (Epoch: 12 March)

Event Time Altitude Azimuth Distance (km) Brightness Sun altitude
Rises 04:07:18 0° 253° (WSW) 3,987 - -39.4°
Reaches altitude 10° 04:12:56 10° 220° (SW) 3,081 - -38.4°
Maximum altitude 04:14:43 11° 206° (SSW) 3,026 - -38.1°
Drops below altitude 10° 04:16:30 10° 192° (SSW) 3,104 - -37.8°
Exits shadow 04:20:45 - 166° (SSE) 3,742 8.0 -37.0°
Sets 04:22:17 0° 159° (SSE) 4,083 8.3 -36.8°
